TimeCDT,TemperatureF,Dew PointF,Humidity,Sea Level PressureIn,VisibilityMPH,Wind Direction,Wind SpeedMPH,Gust SpeedMPH,PrecipitationIn,Events,Conditions,WindDirDegrees,DateUTC
12:12 AM,26.6,26.6,100,29.64,0.5,North,10.4,17.3,N/A,Snow,Light Snow,360,2013-04-19 05:12:00
12:32 AM,26.6,26.6,100,29.64,0.8,North,11.5,19.6,N/A,Snow,Light Snow,350,2013-04-19 05:32:00
12:52 AM,26.6,26.6,100,29.63,0.8,North,9.2,16.1,N/A,Snow,Light Snow,350,2013-04-19 05:52:00
1:12 AM,26.6,26.6,100,29.63,0.5,North,12.7,20.7,0.01,Snow,Light Snow,350,2013-04-19 06:12:00
1:32 AM,26.6,26.6,100,29.63,1.0,North,9.2,18.4,0.01,Snow,Light Snow,350,2013-04-19 06:32:00
1:52 AM,26.6,26.6,100,29.63,0.8,North,6.9,-,0.01,Snow,Light Snow,350,2013-04-19 06:52:00
2:12 AM,26.6,26.6,100,29.63,1.0,NNW,6.9,-,N/A,Snow,Light Snow,340,2013-04-19 07:12:00
2:32 AM,26.6,26.6,100,29.63,1.0,North,8.1,17.3,0.01,Snow,Light Snow,350,2013-04-19 07:32:00
2:52 AM,26.6,24.8,93,29.63,0.5,North,10.4,18.4,0.01,Snow,Light Snow,350,2013-04-19 07:52:00
3:12 AM,24.8,24.8,100,29.64,0.5,NNW,8.1,18.4,N/A,Snow,Snow,340,2013-04-19 08:12:00
3:32 AM,24.8,24.8,100,29.64,0.5,NNW,12.7,19.6,0.01,Snow,Snow,340,2013-04-19 08:32:00
3:52 AM,24.8,24.8,100,29.64,0.5,North,10.4,20.7,0.01,Snow,Snow,350,2013-04-19 08:52:00
4:12 AM,24.8,24.8,100,29.64,0.5,North,5.8,-,0.01,Snow,Light Snow,350,2013-04-19 09:12:00
4:32 AM,24.8,24.8,100,29.64,0.5,NNW,9.2,-,0.01,Snow,Light Snow,340,2013-04-19 09:32:00
4:52 AM,24.8,24.8,100,29.64,0.8,North,10.4,19.6,0.01,Snow,Light Snow,360,2013-04-19 09:52:00
5:12 AM,24.8,23.0,93,29.64,0.8,NNW,6.9,20.7,0.01,Snow,Light Snow,340,2013-04-19 10:12:00
5:32 AM,24.8,23.0,93,29.64,1.0,North,10.4,20.7,0.01,Snow,Light Snow,350,2013-04-19 10:32:00
5:52 AM,23.0,23.0,100,29.65,1.2,North,9.2,24.2,0.01,Snow,Light Snow,350,2013-04-19 10:52:00
6:12 AM,23.0,21.2,93,29.65,1.0,North,12.7,21.9,N/A,Snow,Light Snow,350,2013-04-19 11:12:00
6:32 AM,23.0,21.2,93,29.65,1.2,North,13.8,20.7,N/A,Snow,Light Snow,350,2013-04-19 11:32:00
6:52 AM,23.0,21.2,93,29.65,0.8,NNW,8.1,-,N/A,Snow,Light Snow,340,2013-04-19 11:52:00
7:12 AM,23.0,21.2,93,29.65,1.2,North,12.7,21.9,N/A,Snow,Light Snow,350,2013-04-19 12:12:00
7:32 AM,23.0,23.0,100,29.64,0.8,North,12.7,24.2,N/A,Snow,Light Snow,350,2013-04-19 12:32:00
7:52 AM,23.0,21.2,93,29.65,1.0,North,10.4,27.6,N/A,Snow,Light Snow,350,2013-04-19 12:52:00
8:12 AM,23.0,21.2,93,29.65,1.0,North,9.2,19.6,N/A,Snow,Light Snow,360,2013-04-19 13:12:00
8:32 AM,24.8,23.0,93,29.65,1.0,NNW,11.5,18.4,N/A,Snow,Light Snow,340,2013-04-19 13:32:00
8:52 AM,24.8,23.0,93,29.65,0.8,North,10.4,18.4,N/A,Snow,Light Snow,350,2013-04-19 13:52:00
9:12 AM,24.8,23.0,93,29.65,0.8,North,9.2,21.9,0.01,Snow,Light Snow,350,2013-04-19 14:12:00
9:32 AM,24.8,23.0,93,29.65,1.0,NNW,10.4,23.0,0.01,Snow,Light Snow,340,2013-04-19 14:32:00
9:52 AM,24.8,23.0,93,29.65,1.5,North,12.7,19.6,0.01,Snow,Light Snow,350,2013-04-19 14:52:00
10:32 AM,24.8,24.8,100,29.66,5.0,NNW,12.7,20.7,N/A,,Overcast,340,2013-04-19 15:32:00
10:52 AM,24.8,23.0,93,29.67,4.0,North,15.0,24.2,N/A,,Overcast,350,2013-04-19 15:52:00
11:12 AM,24.8,23.0,93,29.68,1.5,NNW,13.8,23.0,N/A,Snow,Light Snow,340,2013-04-19 16:12:00
11:32 AM,26.6,23.0,86,29.68,4.0,North,16.1,23.0,N/A,,Overcast,350,2013-04-19 16:32:00
11:52 AM,26.6,23.0,86,29.69,7.0,North,15.0,19.6,N/A,,Overcast,350,2013-04-19 16:52:00
12:12 PM,28.4,24.8,86,29.70,10.0,North,11.5,21.9,N/A,,Overcast,350,2013-04-19 17:12:00
12:32 PM,26.6,21.2,80,29.71,4.0,North,11.5,25.3,N/A,,Overcast,350,2013-04-19 17:32:00
12:52 PM,26.6,23.0,86,29.72,5.0,North,13.8,21.9,N/A,Snow,Light Snow,360,2013-04-19 17:52:00
1:12 PM,28.4,23.0,80,29.72,7.0,NNW,11.5,24.2,N/A,,Overcast,340,2013-04-19 18:12:00
1:32 PM,28.4,23.0,80,29.73,10.0,NNW,12.7,20.7,N/A,,Overcast,340,2013-04-19 18:32:00
1:52 PM,30.2,21.2,69,29.73,7.0,NNW,16.1,25.3,N/A,,Overcast,340,2013-04-19 18:52:00
2:12 PM,30.2,23.0,75,29.74,10.0,North,13.8,21.9,N/A,,Overcast,350,2013-04-19 19:12:00
2:32 PM,30.2,24.8,80,29.74,10.0,North,10.4,18.4,N/A,,Mostly Cloudy,360,2013-04-19 19:32:00
2:52 PM,32.0,23.0,69,29.75,10.0,NNW,11.5,20.7,N/A,,Mostly Cloudy,330,2013-04-19 19:52:00
3:12 PM,32.0,19.4,60,29.76,10.0,North,11.5,19.6,N/A,,Mostly Cloudy,360,2013-04-19 20:12:00
3:32 PM,32.0,21.2,64,29.77,10.0,North,11.5,17.3,N/A,,Mostly Cloudy,350,2013-04-19 20:32:00
3:52 PM,32.0,17.6,55,29.77,10.0,North,11.5,21.9,N/A,,Mostly Cloudy,350,2013-04-19 20:52:00
4:12 PM,32.0,15.8,51,29.78,10.0,North,9.2,17.3,N/A,,Mostly Cloudy,350,2013-04-19 21:12:00
4:32 PM,33.8,15.8,48,29.79,10.0,North,12.7,19.6,N/A,,Overcast,360,2013-04-19 21:32:00
4:52 PM,32.0,15.8,51,29.80,10.0,North,6.9,-,N/A,,Scattered Clouds,360,2013-04-19 21:52:00
5:12 PM,32.0,14.0,48,29.81,10.0,NNW,11.5,20.7,N/A,,Clear,330,2013-04-19 22:12:00
5:32 PM,32.0,12.2,44,29.82,10.0,NNW,16.1,19.6,N/A,,Clear,330,2013-04-19 22:32:00
5:52 PM,32.0,12.2,44,29.83,10.0,NNW,9.2,20.7,N/A,,Clear,340,2013-04-19 22:52:00
6:12 PM,32.0,12.2,44,29.83,10.0,North,8.1,-,N/A,,Clear,350,2013-04-19 23:12:00
6:32 PM,30.2,10.4,44,29.84,10.0,NW,10.4,18.4,N/A,,Clear,320,2013-04-19 23:32:00
6:52 PM,30.2,10.4,44,29.85,10.0,NNW,9.2,16.1,N/A,,Clear,330,2013-04-19 23:52:00
7:12 PM,28.4,10.4,47,29.86,10.0,NNW,8.1,-,N/A,,Clear,340,2013-04-20 00:12:00
7:32 PM,26.6,10.4,51,29.87,10.0,NNW,6.9,-,N/A,,Clear,340,2013-04-20 00:32:00
7:52 PM,24.8,8.6,50,29.87,10.0,NNW,4.6,-,N/A,,Clear,340,2013-04-20 00:52:00
8:12 PM,23.0,8.6,54,29.88,10.0,NNW,3.5,-,N/A,,Clear,340,2013-04-20 01:12:00
8:32 PM,19.4,5.0,54,29.89,10.0,Calm,Calm,-,N/A,,Clear,0,2013-04-20 01:32:00
8:52 PM,14.0,1.4,57,29.90,10.0,Calm,Calm,-,N/A,,Clear,0,2013-04-20 01:52:00
9:12 PM,12.2,-0.4,57,29.91,10.0,Calm,Calm,-,N/A,,Clear,0,2013-04-20 02:12:00
9:32 PM,10.4,-0.4,62,29.92,10.0,Calm,Calm,-,N/A,,Clear,0,2013-04-20 02:32:00
9:52 PM,8.6,1.4,73,29.93,10.0,Calm,Calm,-,N/A,,Clear,0,2013-04-20 02:52:00
10:12 PM,8.6,-0.4,67,29.93,10.0,Calm,Calm,-,N/A,,Clear,0,2013-04-20 03:12:00
10:32 PM,6.8,-0.4,72,29.94,10.0,Calm,Calm,-,N/A,,Clear,0,2013-04-20 03:32:00
10:52 PM,5.0,-2.2,72,29.94,10.0,Calm,Calm,-,N/A,,Clear,0,2013-04-20 03:52:00
11:12 PM,3.2,-2.2,78,29.95,10.0,Calm,Calm,-,N/A,,Clear,0,2013-04-20 04:12:00
11:32 PM,3.2,-2.2,78,29.96,10.0,Calm,Calm,-,N/A,,Clear,0,2013-04-20 04:32:00